Location: Mat�lon
(46.2791°N, 7.1028°E)
Time: 11:16:57
(UTC+00:00)

CZ-2C R/B - Pass Details

Date: 18 September 2020
Orbit: 785 x 870 km, 98.2° (Epoch: 24 October)

Event Time Altitude Azimuth Distance (km) Brightness Sun altitude
Rises 19:16:48 0° 14° (NNE) 3,412 6.0 -17.7°
Reaches altitude 10° 19:19:10 10° 15° (NNE) 2,484 5.2 -18.1°
Maximum altitude 19:24:43 81° 104° (ESE) 876 2.6 -19.0°
Drops below altitude 10° 19:30:19 10° 191° (SSW) 2,504 5.0 -19.9°
Sets 19:32:42 0° 193° (SSW) 3,441 5.8 -20.2°
